CZ-6A DEB, 61461

Orbit data source: Space-Track

CZ-6A DEB, 61461 is space debris in LEO originally from a launch on Tue, 06 Aug 2024 UTC launched from the Taiyaun Space Center, China (TSC). Debris objects in space refer to the collection of defunct objects orbiting the Earth. Examples of debris include non-operational satellites, rocket bodies, and fragments generated from explosions, collisions, or faulty payload assembly.

Loading next visibility...
Identifier
61461, 2024-140ZT
Orbit
LEO
Country
Flag of CNCN / PRC
Related business
Manufacturer
SAST
Mission
Spacecraft
Bus & Motor
Unknown
Mass
Unknown
Launch date (UTC)
2024-08-06 (2 years ago)
Launch vehicle
Unknown
Launch site
Taiyaun Space Center, China (TSC)
Object type
Payload
Rocket body
Debris
Shape & HBR
Unknown shape, 0.1 m
Radar Cross Section
Medium (>0.1 m² and <1 m²)

Expand to show TLE details & history
Last TLE update: 2 days ago

TLE from 2 days ago
0 CZ-6A DEB
1 61461U 24140ZT  26170.26740200  .00002575  00000-0  83487-3 0  9998
2 61461  89.1158 282.0073 0022599  12.7023 347.4742 14.38575510 94650
Epoch: 2026-06-19T06:25Z
TLE epoch observation values (Epoch: 2026-06-19T06:25:03.532Z)
Latitude
-0.00004°
Longitude
-81.75625°
Altitude
750.533 km
Speed
7.488 km/s
True Right ascension
18h 48m 01s
True Declination
0° 00' 00"
Sunlit
Object was in full shadow at epoch
Visualization orbit readout
Latitude
Unknown
Longitude
Unknown
Altitude
Unknown
Speed
Unknown
Apparent Right ascension
Unknown
Apparent Declination
Unknown
Sunlit
N/A
Visualization observer readout
Local Sidereal Time
07:23:28
Azimuth
Unknown
Elevation
Unknown
Doppler factor
Unknown
Orbital elements
Apogee altitude
776.265 km
Perigee altitude
744.001 km
Semi-major axis
7,138.27 km
Eccentricity
0.00226
Inclination
89.1158°
RAAN
282.0073°
Arg. of periapsis
12.7023°
True anomaly
347.41788°
Mean anomaly
347.4742°
Eccentric anomaly
347.44606°
Mean motion
3.59877 °/min
Orbital period
100.03 mins
BSTAR
0.00083487
Loading maneuver chart data...
Computing Atmospheric mass density...
Loading historical data...
Loading historical data...
Loading historical data...
Loading historical data...
Loading historical data...
Loading historical data...
Loading historical data...

Documentation

Showing up to 5 results
|